Regional Weather Roundup
Issued by NWS Jackson, KY

Home | Current Version | Previous Version | Text Only | Print | Product List | Glossary Off
Versions: 1 2 3 4 5 6 7 8 9 10 11 12 13 14 15 16 17 18 19 20 21 22 23 24 25 26 27 28

000
ASUS43 KJKL 230710
RWRJKL

EAST KENTUCKY HOURLY WEATHER ROUNDUP
NATIONAL WEATHER SERVICE JACKSON KY
300 AM EDT WED MAY 23 2018

NOTE: "FAIR" INDICATES FEW OR NO CLOUDS BELOW 12,000 FEET WITH
NO SIGNIFICANT WEATHER AND/OR OBSTRUCTIONS TO VISIBILITY.

* THESE REPORTS ARE NOT UNDER NWS QUALITY CONTROL AND MAY NOT
  REPORT WEATHER SUCH AS PRECIPITATION AND FOG.

KYZ079-080-083-085-087-088-110-112-115-119-120-230800
...EASTERN KENTUCKY...

CITY           SKY/WX    TMP DP  RH WIND       PRES   REMARKS
JACKSON          N/A     65  64  97 CALM      30.06F
LONDON         FOG       63  63 100 S5        30.07S VSB 1/4
SOMERSET*      FOG       63  63 100 MISG      30.07F VSB 1/2
MONTICELLO*    MOCLDY    61  61 100 CALM      30.08R FOG
WILLIAMSBURG*  CLOUDY    63  63 100 CALM      30.08S VSB<1/4
MIDDLESBORO*   FOG       64  64 100 CALM      30.08S VSB 1
HARLAN APT*    CLOUDY    65  65 100 CALM      30.09S VSB 1/4
PIKE CO APT*   FOG       65  65 100 CALM      30.07S VSB<1/4
BIG SANDY APT*   N/A     67  67 100 SW3       30.05F
MOREHEAD APT*  PTSUNNY   70  66  88 CALM      30.06F
ASHLAND*       MOCLDY    67  66  97 CALM      30.03F
$$

KYZ035-036-041-042-044-050-067-078-099-230800
...CENTRAL KENTUCKY...

CITY           SKY/WX    TMP DP  RH WIND       PRES   REMARKS
MT STERLING*   CLOUDY    68  66  94 CALM      30.07S
FLEMING/MASON* CLOUDY    68  66  94 CALM      30.06S
DANVILLE*      MOCLDY    64  63  94 CALM      30.07S
LEXINGTON      CLOUDY    69  64  84 CALM      30.05S
FRANKFORT      MOCLDY    68  65  90 CALM      30.04S
LOUISVILLE     MOCLDY    73  70  90 NW6       30.02S
LEBANON*         N/A     66  66 100 CALM      30.05S
GLASGOW*       MOCLDY    64  63  97 CALM      30.04S FOG
BOWLING GREEN    N/A     68  68 100 CALM      30.04F
$$

KYZ091>093-OHZ055-061-077-WVZ005-015-034-035-042-230800
...SOUTHERN OHIO/WEST VIRGINIA...

CITY           SKY/WX    TMP DP  RH WIND       PRES   REMARKS
COVINGTON        N/A     67  58  72 NE7       30.06R
COLUMBUS       CLOUDY    65  61  87 N7        30.03F
DAYTON           N/A     60  60 100 NW7       30.07S
WILMINGTON       N/A     61  61 100 CALM      30.05S
HUNTINGTON       N/A     69  64  84 N3        30.03S
CHARLESTON     TSTM      65  64  97 SE5       30.03F FOG
PINEVILLE*     FOG       64  64  97 MISG      30.13S VSB 1/2
BECKLEY          N/A     60  57  89 S5        30.10F
BLUEFIELD      MOCLDY    61  61 100 W5        30.13S
LOGAN CO APT*  FOG       64  64 100 CALM      30.06F VSB<1/4
$$

VAZ002-007-008-TNZ017-027-036-066-071-230800
...SOUTHWEST VIRGINIA/EAST TENNESSEE...

CITY           SKY/WX    TMP DP  RH WIND       PRES   REMARKS
WISE*          CLOUDY    64  64 100 CALM      30.14S
JONESVILLE*    FOG       64  64 100 CALM      30.10F VSB 1/2
ABINGDON*        N/A     64  64 100 CALM      30.10F FOG
BRISTOL          N/A     65  65 100 CALM      30.08R
MORRISTOWN*    SUNNY     68  68 100 W3        30.06S
SEVIERVILLE*   PTSUNNY   66  66 100 CALM      30.05F
KNOXVILLE      MOCLDY    67  67 100 SW3       30.04F
LAFOLLETTE*    FOG       66  66 100 CALM      30.09S VSB 0
OAK RIDGE        N/A     68  66  93 CALM      30.05F
CROSSVILLE       N/A     64  62  93 CALM      30.09F
NASHVILLE        N/A     67  65  93 CALM      30.04F
$$

...KEY TO REMARKS...
VSB - VISIBILITY IN MILES
WCI - WIND CHILL INDEX
HX  - HEAT INDEX

$$




USA.gov is the U.S. government's official web portal to all federal, state and local government web resources and services.